Regional Weather Roundup
Issued by NWS

Home | Current Version | Previous Version | Text Only | Print | Product List | Glossary Off
Versions: 1 2 3 4 5 6 7 8 9 10 11 12 13 14 15 16 17 18 19 20 21 22 23 24 25 26 27 28 29 30 31 32 33 34 35 36 37 38 39 40 41 42 43 44 45 46 47 48 49 50

000
ASUS45 KBOI 250910
RWRID
WEATHER ROUNDUP FOR IDAHO
NATIONAL WEATHER SERVICE BOISE ID
200 AM MST SUN JAN 25 2015

NOTE: "FAIR" INDICATES FEW OR NO CLOUDS BELOW 12000 FEET
WITH NO SIGNIFICANT WEATHER AND/OR OBSTRUCTIONS TO VISIBILITY

IDZ012-014-251000-
SOUTHWEST IDAHO


CITY           SKY/WX    TMP DP  RH WIND       PRES   REMARKS
BOISE          CLEAR     30  28  92 CALM      30.48S
CALDWELL       CLEAR     28  23  80 CALM      30.51S VSB 1
MOUNTAIN HOME  CLEAR     30  28  90 SE3       30.47S
$$

IDZ016-017-251000-
SOUTHCENTRAL IDAHO


CITY           SKY/WX    TMP DP  RH WIND       PRES   REMARKS
BURLEY         CLOUDY    32  29  88 NW3       30.42F
JEROME         CLEAR     29  26  89 E6        30.44S WCI  23
TWIN FALLS     CLEAR     30  26  85 SE5       30.43F WCI  25
$$

IDZ019>023-251000-
SOUTHEAST IDAHO


CITY           SKY/WX    TMP DP  RH WIND       PRES   REMARKS
IDAHO FALLS    CLOUDY    27  24  89 CALM      30.45F
POCATELLO      CLOUDY    30  29  96 NE6       30.45F WCI  24
REXBURG        CLOUDY    25  25 100 CALM      30.45R FOG
$$

IDZ006-010-011-018-031-032-251000-
CENTRAL IDAHO MOUNTAINS


CITY           SKY/WX    TMP DP  RH WIND       PRES   REMARKS
MCCALL         CLOUDY    34  32  92 CALM      30.41S FOG
HAILEY         CLEAR     23  21  93 NW8       30.43S WCI  14
STANLEY          N/A     32  28  85 SE5       30.44F WCI  27
SALMON         CLOUDY    30  27  86 CALM      30.40S
CHALLIS        PTCLDY    30  28  92 CALM      30.38F
$$

IDZ002-004-006-007-026-251000-
NORTHERN IDAHO


CITY           SKY/WX    TMP DP  RH WIND       PRES   REMARKS
LEWISTON       CLOUDY    49  39  68 S5        30.25F
LOWELL           N/A     37  35  92 NW5       30.36F WCI  33
COEUR D`ALENE  CLOUDY    43  41  93 SE7       30.20S
MULLAN PASS    FOG       39  39 100 SW12G24   30.23R VSB 1/4 WCI  32
$$



USA.gov is the U.S. government's official web portal to all federal, state and local government web resources and services.